THORAD AGENA D DEB, 4650

Orbit data source: Space-Track

THORAD AGENA D DEB, 4650 is space debris in SSO originally from a launch on Wed, 08 Apr 1970 UTC launched from the Air Force Western Test Range (AFWTR). Debris objects in space refer to the collection of defunct objects orbiting the Earth. Examples of debris include non-operational satellites, rocket bodies, and fragments generated from explosions, collisions, or faulty payload assembly.

Loading next visibility...
Identifier
4650, 1970-025AJ
Orbit
SSO
Country
Flag of USUS
Related business
Manufacturer
Unknown
Mission
Spacecraft
Bus & Motor
Unknown
Mass
Unknown
Launch date (UTC)
1970-04-08 (56 years ago)
Launch vehicle
Unknown
Launch site
Air Force Western Test Range (AFWTR)
Object type
Payload
Rocket body
Debris
Shape & HBR
Unknown shape, 0.2 m
Radar Cross Section
Small (<0.1 m²)

Expand to show TLE details & history
Last TLE update: 2 days ago

TLE from 2 days ago
0 THORAD AGENA D DEB
1 04650U 70025AJ  25306.25896740  .00001236  00000-0  68212-3 0  9990
2 04650  99.8315  47.5225 0113238 354.6320   5.3626 14.10475458825699
Epoch: 2025-11-02T06:12Z
TLE epoch observation values (Epoch: 2025-11-02T06:12:54.783Z)
Latitude
0.00003°
Longitude
-87.48303°
Altitude
779.022 km
Speed
7.506 km/s
True Right ascension
03h 10m 05s
True Declination
0° 00' 00"
Sunlit
Object was in full shadow at epoch
Visualization orbit readout
Latitude
Unknown
Longitude
Unknown
Altitude
Unknown
Speed
Unknown
Apparent Right ascension
Unknown
Apparent Declination
Unknown
Sunlit
N/A
Visualization observer readout
Local Sidereal Time
15:18:08
Azimuth
Unknown
Elevation
Unknown
Doppler factor
Unknown
Orbital elements
Apogee altitude
936.879 km
Perigee altitude
773.066 km
Semi-major axis
7,233.11 km
Eccentricity
0.01132
Inclination
99.8315°
RAAN
47.5225°
Arg. of periapsis
354.632°
True anomaly
5.48561°
Mean anomaly
5.3626°
Eccentric anomaly
5.42393°
Mean motion
3.52822 °/min
Orbital period
102.03 mins
BSTAR
0.00068212
Loading maneuver chart data...
Computing Atmospheric mass density...

Documentation

Showing up to 5 results
|